Regional Weather Roundup
Issued by NWS

Home | Current Version | Previous Version | Text Only | Print | Product List | Glossary Off
Versions: 1 2 3 4 5 6 7 8 9 10 11 12 13 14 15 16 17 18 19 20 21 22 23 24 25 26 27

000
ASUS45 KSLC 181010
RWRUT

UTAH REGIONAL WEATHER ROUNDUP
NATIONAL WEATHER SERVICE SALT LAKE CITY UT
300 AM MST WED JAN 18 2017

UTZ001>011-023>025-181100-

NORTHERN UTAH

CITY           SKY/WX    TMP DP  RH WIND       PRES   REMARKS
BRIGHAM CITY     N/A     10   6  84 N5        30.22S WCI   1
HILL AFB       PTCLDY    17   9  72 SE15      30.17F WCI   2
LOGAN          CLEAR     -2  -4  91 NW6       30.22S FOG     WCI -14
OGDEN          PTCLDY    16   9  74 S8        30.18F WCI   5
SALT LAKE CITY PTCLDY    21  17  84 CALM      30.19F
TOOELE VALLEY  PTCLDY    19  19 100 S5        30.20F WCI  13
WENDOVER       CLOUDY    21  16  79 S3        30.20F
HEBER CITY     PTCLDY    -2  -6  84 CALM      30.16F
WEST JORDAN    PTCLDY    19  19 100 N3        30.18F

$$

UTZ011>015-024>027-181100-

CENTRAL/NORTHEAST UTAH

CITY           SKY/WX    TMP DP  RH WIND       PRES   REMARKS
PROVO AIRPORT  PTCLDY    17  14  88 CALM      30.20S
MOAB/CANYONLAN CLEAR     26  24  92 CALM      30.16F
DELTA          CLEAR     19  18  93 N3        30.17S
PRICE          PTCLDY    12   3  67 NE6       30.13F WCI   3
RICHFIELD      CLEAR     19  19 100 NE2       30.19F
ROOSEVELT      FLURRIES  18  14  86 CALM      30.28F
VERNAL         CLOUDY    15  12  88 NW6       30.25F WCI   6

$$

UTZ013>016-019>022-027-181100-

SOUTHERN UTAH

CITY           SKY/WX    TMP DP  RH WIND       PRES   REMARKS
BRYCE CANYON   CLEAR      4   0  83 CALM      30.15S
CEDAR CITY     CLEAR     18  14  84 CALM      30.13S
MILFORD        CLEAR     18  15  88 S5        30.14F WCI  11
ST GEORGE      MOSUNNY   34  25  69 CALM      30.19S
HANKSVILLE     PTCLDY    23  21  93 MISG      30.21S
KANAB          CLEAR     27  25  93 NE5       30.20F WCI  21
BLANDING       CLEAR     27  26  96 NE5       30.22S WCI  22

$$

REGIONAL REPORTS     COLORADO/ARIZONA

CITY           SKY/WX    TMP DP  RH WIND       PRES   REMARKS
CRAIG, CO      FOG        7   4  87 CALM      30.20S VSB 1/4
GRAND JUNCTION CLOUDY    30  30 100 CALM      30.17F
RIFLE, CO      CLOUDY    26  23  88 CALM      30.19S
MONTROSE, CO   CLOUDY    34  32  92 CALM      30.18S
CORTEZ, CO     CLEAR     26  25  96 NE3       30.15S
COLORADO CITY    N/A     27  27 100 E3        30.18S
PAGE, AZ       CLEAR     34  24  67 S5        30.16F WCI  30
GRAND CANYON   CLEAR     21  19  92 CALM      30.16F
KINGMAN, AZ    CLEAR     31  26  82 S3        30.14S
FLAGSTAFF, AZ  CLEAR     22  19  89 CALM      30.16F

$$

REGIONAL REPORTS    NEVADA/IDAHO/WYOMING

CITY           SKY/WX    TMP DP  RH WIND       PRES   REMARKS
LAS VEGAS, NV  PTCLDY    40  23  50 CALM      30.14S
ELY, NY        PTCLDY     6   1  80 S13       30.13S WCI -10
ELKO, NV       MOCLDY     6   0  76 NE3       30.16R
POCATELLO, ID  CLOUDY     2  -1  88 NW6       30.15S WCI  -9
BURLEY, ID     CLEAR     15   9  76 NE12      30.08S WCI   2
FORT BRIDGER,    N/A     10   1  67 CALM      30.13S
EVANSTON, WY   CLOUDY    16   6  65 SW3       30.09F
ROCK SPRINGS,  CLOUDY    -2  -6  83 CALM      30.11F

$$




USA.gov is the U.S. government's official web portal to all federal, state and local government web resources and services.